www.pogodaiklimat.ru

Погода и климат >> Архив погоды >> Австралия >> Западная Австралия >> Микатарра


ПОГОДА в Микатарре

  • Прогноз погоды в Микатарре
  • Монитор погоды в Микатарре

АРХИВ ПОГОДЫ в Микатарре

Время (UTC), дата Ветер
(напр.,м/с)
 
Видим.   Явления Облачность Т
(С)
Тd
(С)
f
(%)
Тe
(С)
Тes
(С)
Комфортность P
(гПа)
Po
(гПа)
Тmin
(С)
Tmax
(С)
R
(мм)
R24
(мм)
S
(см)
19 9.06 С 3 н/о н/о +7.0 +5.9 93 +4 +4 1015.5 955.5
21 9.06 С 2 н/о н/о +5.7 +5.0 95 +3 +3 1014.9 954.9
22 9.06 С 2 н/о н/о +5.4 +4.7 95 +3 +3 1015.0 955.0
00 10.06 С 3 н/о н/о +8.8 +6.3 84 +6 +6 1015.4 955.4
01 10.06 С 5 н/о н/о +12.3 +6.6 68 +10 +10 1015.7 955.7 +5.2
03 10.06 СЗ 7 н/о н/о +15.5 +7.0 57 +14 +14 1014.8 954.8
04 10.06 СЗ 7 н/о н/о +15.9 +6.6 54 +14 +14 1013.9 954.0
06 10.06 СЗ 8 н/о н/о +17.4 +6.3 48 +16 +16 1011.9 952.1
07 10.06 СЗ 7 н/о 1/1 1000 м
[]
+17.6 +6.5 48 +17 +18 1011.6 951.8
09 10.06 СЗ 7 н/о н/о +16.5 +5.8 49 +15 +15 1011.5 951.7
10 10.06 СЗ 5 н/о 8/8 1500 м
[]
+16.0 +6.7 54 +15 +15 1011.5 951.7
12 10.06 С 3 н/о н/о +14.2 +7.7 65 +13 +13 1011.8 952.0
13 10.06 С 4 н/о 1/1 1500 м
[]
+13.9 +7.2 64 +13 +13 1011.6 951.8 +18.0
15 10.06 С 6 н/о н/о +14.4 +7.7 64 +13 +13 1011.3 951.5
16 10.06 СЗ 8 н/о 5/5 1000 м
[]
+14.0 +8.0 67 +12 +12 1011.0 951.2
18 10.06 СЗ 6 н/о н/о +12.3 +10.9 91 +9 +9 1010.9 951.1
19 10.06 ЮЗ 6 3000 м слаб. дождь {туман} 10/10 200 м
[]
+10.7 +9.9 95 +7 +7 1011.5 951.7
21 10.06 ЮЗ 5 н/о н/о +9.3 +8.7 96 +6 +6 1012.8 952.9
22 10.06 ЮЗ 3 н/о в посл. час дождь {туман} 10/10 1000 м
[]
+9.3 +8.2 93 +7 +7 1013.2 953.3
00 11.06 З 2 н/о н/о +9.7 +8.3 91 +8 +8 1014.6 954.6
01 11.06 З 3 н/о {туман} 9/9 1500 м
[]
+10.7 +7.2 79 +9 +9 1016.0 955.9 +8.8
03 11.06 З 3 н/о н/о +10.6 +6.4 75 +9 +9 1016.2 956.1
04 11.06 СЗ 5 н/о {туман} 9/0
[]
+11.2 +6.9 75 +9 +12 1016.8 956.7
06 11.06 З 5 н/о н/о +13.1 +7.8 70 +11 +11 1015.6 955.6
07 11.06 СЗ 6 н/о {туман} 8/8 600 м
[]
+13.7 +7.2 65 +12 +12 1015.8 955.8
09 11.06 СЗ 3 н/о н/о +13.6 +7.4 66 +13 +13 1017.4 957.3
10 11.06 З 4 н/о 10/10 1500 м
[]
+13.6 +6.2 61 +12 +12 1018.1 957.9
12 11.06 З 2 н/о н/о +13.0 +7.7 70 +12 +12 1019.7 959.4
13 11.06 ЮЗ 2 н/о 6/6 1000 м
[]
+12.4 +7.5 72 +12 +12 1020.0 959.7 +14.9
15 11.06 З 2 н/о н/о +9.5 +7.6 88 +8 +8 1020.5 960.2
16 11.06 З 2 н/о н/о +9.7 +7.5 86 +8 +8 1020.5 960.2
18 11.06 З 2 н/о н/о +8.1 +6.9 92 +6 +6 1020.2 959.9
19 11.06 ЮЗ 2 н/о н/о +7.5 +6.6 94 +5 +5 1020.1 959.8
21 11.06 ЮЗ 2 н/о н/о +6.7 +6.0 95 +4 +4 1021.1 960.7
22 11.06 ЮЗ 3 н/о н/о +7.1 +6.5 96 +4 +4 1021.7 961.3
00 12.06 Ю 2 н/о н/о +8.4 +8.0 97 +6 +6 1023.2 962.7
01 12.06 Ю 3 н/о н/о +10.7 +8.6 87 +9 +9 1023.9 963.4 +6.2
03 12.06 Ю 2 н/о н/о +14.3 +7.4 63 +14 +14 1023.9 963.4
04 12.06 Ю 3 н/о н/о +15.2 +6.0 54 +15 +15 1023.2 962.7
06 12.06 Ю 3 н/о н/о +16.2 +4.6 46 +16 +16 1021.5 961.1
07 12.06 ЮЗ 4 н/о 1/1 1000 м
[]
+16.5 +5.2 47 +16 +19 1021.4 961.0
09 12.06 ЮЗ 4 н/о н/о +15.2 +5.7 53 +14 +14 1021.7 961.3
10 12.06 Ю 3 н/о н/о +13.8 +6.7 62 +13 +13 1022.1 961.7
12 12.06 Ю 3 н/о н/о +12.6 +7.5 71 +11 +11 1023.2 962.7
13 12.06 Ю 2 н/о н/о +11.5 +7.0 74 +10 +10 1023.7 963.2 +17.0
15 12.06 ЮВ 3 н/о н/о +10.2 +6.7 79 +8 +8 1023.0 962.5
16 12.06 В 3 н/о н/о +10.1 +6.6 79 +8 +8 1022.9 962.4
18 12.06 В 3 н/о н/о +9.1 +6.7 85 +7 +7 1022.3 961.9
19 12.06 В 3 н/о н/о +8.2 +6.3 88 +6 +6 1022.1 961.7
21 12.06 В 3 н/о н/о +8.0 +5.6 85 +5 +5 1022.0 961.6
22 12.06 В 2 н/о н/о +6.7 +5.3 91 +4 +4 1022.7 962.2
00 13.06 В 3 н/о н/о +9.6 +5.6 76 +7 +7 1024.4 963.8
01 13.06 В 3 н/о н/о +13.1 +5.0 58 +12 +12 1025.0 964.4 +6.4
03 13.06 ЮВ 4 н/о н/о +15.7 +3.5 44 +15 +15 1024.8 964.2
04 13.06 Ю 3 н/о н/о +16.4 +4.1 44 +16 +16 1023.7 963.2
06 13.06 Ю 3 н/о н/о +17.1 +4.1 42 +17 +17 1021.9 961.5
07 13.06 Ю 3 н/о 10/0
[]
+16.7 +3.4 41 +17 +18 1021.7 961.3
09 13.06 ЮВ 4 н/о н/о +15.1 +3.9 47 +14 +14 1022.2 961.8
10 13.06 ЮВ 3 н/о н/о +13.7 +4.6 54 +13 +13 1022.8 962.3
12 13.06 ЮВ 3 н/о н/о +12.2 +4.4 59 +11 +11 1023.5 963.0
13 13.06 ЮВ 3 н/о н/о +11.3 +4.3 62 +10 +10 1023.5 963.0 +17.6
15 13.06 ЮВ 4 н/о н/о +10.3 +5.1 70 +8 +8 1023.2 962.7
16 13.06 В 4 н/о н/о +9.3 +5.1 75 +7 +7 1023.2 962.7
18 13.06 В 3 н/о н/о +8.3 +4.3 76 +6 +6 1023.0 962.5
19 13.06 В 3 н/о н/о +7.4 +4.2 80 +5 +5 1022.8 962.3
21 13.06 В 3 н/о н/о +7.1 +3.7 79 +4 +4 1022.3 961.9
22 13.06 В 3 н/о н/о +6.1 +3.8 85 +3 +3 1022.4 962.0
00 14.06 В 3 н/о н/о +8.7 +3.9 72 +7 +7 1023.8 963.3
01 14.06 В 4 н/о н/о +12.3 +4.3 58 +11 +11 1024.1 963.6 +6.0
03 14.06 В 3 н/о н/о +15.4 +3.9 46 +15 +15 1024.0 963.5
04 14.06 В 2 н/о н/о +16.3 +3.7 43 +16 +16 1023.0 962.5
06 14.06 ЮЗ 4 н/о н/о +17.0 +3.3 40 +17 +17 1021.2 960.8
07 14.06 Ю 3 н/о н/о +17.1 +2.3 37 +17 +17 1020.9 960.6
09 14.06 Ю 4 н/о н/о +16.3 +3.4 42 +16 +16 1021.4 961.0
10 14.06 Ю 3 н/о н/о +14.5 +3.6 48 +14 +14 1022.0 961.6
12 14.06 Ю 2 н/о н/о +11.2 +6.3 72 +10 +10 1023.1 962.6
13 14.06 Ю 3 н/о н/о +11.2 +5.5 68 +9 +9 1023.2 962.7 +18.0
15 14.06 Ю 3 н/о н/о +10.1 +5.5 73 +8 +8 1023.1 962.6
16 14.06 Ю 3 н/о н/о +9.3 +5.7 78 +7 +7 1023.1 962.6
18 14.06 ЮВ 2 н/о н/о +7.6 +5.7 88 +6 +6 1023.0 962.5
19 14.06 ЮВ 1 н/о н/о +6.9 +5.4 90 +6 +6 1023.1 962.6
21 14.06 Ю 2 н/о н/о +5.9 +4.5 91 +3 +3 1023.4 962.9
22 14.06 Ю 2 н/о н/о +5.9 +4.7 92 +3 +3 1024.0 963.5
00 15.06 Ю 2 н/о н/о +8.3 +5.2 81 +7 +7 1025.2 964.6
01 15.06 ЮВ 2 н/о н/о +12.7 +4.4 57 +12 +12 1025.9 965.3 +5.6
03 15.06 ЮВ 4 н/о н/о +16.4 +6.0 50 +16 +16 1025.4 964.8
04 15.06 ЮВ 4 н/о 1/1 1000 м
[]
+17.0 +5.3 46 +17 +22 1024.5 963.9
06 15.06 ЮВ 4 н/о н/о +18.1 +4.7 41 +18 +18 1022.9 962.4
07 15.06 Ю 4 н/о н/о +18.7 +5.9 43 +19 +19 1022.8 962.3
09 15.06 ЮВ 4 н/о н/о +17.1 +5.7 47 +17 +17 1023.1 962.6
10 15.06 ЮВ 3 н/о н/о +15.4 +5.9 53 +15 +15 1023.4 962.9
12 15.06 ЮВ 4 н/о н/о +13.8 +5.7 58 +12 +12 1024.2 963.7
13 15.06 ЮВ 4 н/о н/о +12.7 +5.4 61 +11 +11 1024.6 964.0 +18.9
15 15.06 ЮВ 4 н/о н/о +11.0 +4.7 65 +9 +9 1024.0 963.5
16 15.06 ЮВ 4 н/о н/о +9.9 +4.3 68 +8 +8 1023.9 963.4
18 15.06 В 3 н/о н/о +8.2 +4.4 77 +6 +6 1023.9 963.4
19 15.06 ЮВ 4 н/о н/о +7.9 +4.5 79 +5 +5 1023.7 963.2
21 15.06 ЮВ 3 н/о н/о +7.3 +4.3 81 +5 +5 1024.2 963.7
22 15.06 Ю 3 н/о н/о +6.0 +4.0 87 +3 +3 1024.8 964.2
00 16.06 В 3 н/о н/о +9.1 +4.7 74 +7 +7 1025.9 965.3
01 16.06 В 5 н/о н/о +11.4 +5.5 67 +9 +9 1026.6 965.9 +5.9
03 16.06 В 4 н/о н/о +15.8 +4.8 48 +15 +15 1025.7 965.1
04 16.06 В 3 н/о н/о +17.4 +4.4 42 +17 +17 1024.7 964.1
06 16.06 В 2 н/о н/о +18.5 +3.2 36 +19 +19 1022.9 962.4
07 16.06 СВ 1 н/о 9/0
[]
+18.8 +3.0 35 +20 +23 1023.0 962.5
09 16.06 ЮВ 4 н/о н/о +17.3 +3.2 39 +17 +17 1023.0 962.5
10 16.06 Ю 4 н/о 10/0
[]
+15.7 +3.8 45 +15 +15 1023.7 963.2
12 16.06 Ю 4 н/о н/о +13.9 +4.2 52 +13 +13 1024.8 964.2
13 16.06 Ю 3 н/о 3/0
[]
+12.3 +4.8 60 +11 +11 1025.1 964.5 +19.0
15 16.06 Ю 4 н/о н/о +11.8 +5.0 63 +10 +10 1024.7 964.1
16 16.06 ЮВ 4 н/о 3/0
[]
+10.9 +5.0 67 +9 +9 1024.5 963.9
18 16.06 Ю 4 н/о н/о +9.3 +4.9 74 +6 +6 1024.5 963.9

 

Местоположение метеостанции Микатарра (Западная Австралия, Австралия): широта -26.61 долгота 118.55 высота над уровнем моря 519 м.

В архиве по умолчанию представлена погода в Микатарре за последнюю неделю. Архивные данные за месяц целиком и за предыдущие месяцы, начиная с января 2011 года, Вы можете получить, выбрав интересующий диапазон дат из раскрывающегося списка и нажав кнопку "Ввод!".


*Определитесь, кто Вы:
робот инопланетянин человек

Внимание! Время в таблицах - всемирное. Для получения местного времени необходимо прибавить поправку, которая равна 8 ч.

Смотрите также архив погоды в соседних городах и на ближайших метеорологических станциях:

Погода в Маунт Магнет аэропорту (Западная Австралия, Австралия) (181 км)
Погода в Леинстере (Западная Австралия, Австралия) (253 км)
Погода в Леонора аэропорту (Западная Австралия, Австралия) (372 км)
Погода в Ньюмане (Западная Австралия, Австралия) (378 км)
Погода в Мораве (Западная Австралия, Австралия) (381 км)
Погода в Параберду (Западная Австралия, Австралия) (391 км)
Погода в Лавертоне (Западная Австралия, Австралия) (441 км)
Погода в Дауоллину (Западная Австралия, Австралия) (448 км)
Погода в Джеральдтоне (Западная Австралия, Австралия) (451 км)
Погода в Шарк-Бэе (Западная Австралия, Австралия) (502 км)

Пояснения к столбцам:

Ветер - указаны скорость ветра в м/с - средняя за 10 мин, порывы в срок и между сроками (в фигурных скобках) и направление, откуда дует ветер: С - северный, СВ - северо-восточный, В - восточный, ЮВ - юго-восточный, Ю - южный, ЮЗ - юго-западный, З - западный, СЗ - северо-западный.
Видимость - горизонтальная дальность видимости в метрах или километрах. При видимости от 1 до 10 км при отсутствии осадков обычно наблюдается дымка, при ухудшении видимости до 1 км и менее - туман. В сухую погоду видимость может ухудшаться дымом, пылью или мглою.
Явления - указаны атмосферные явления, наблюдавшиеся в срок или в последний час перед сроком; фигурными скобками обозначены явления, наблюдавшиеся между сроками (за 1-3 часа до срока); квадратными скобками обозначены град или гололедные отложения с указанием их диаметра в мм.
Облачность - указаны через наклонную черту общая и нижняя облачность в баллах и высота нижней границы облаков в метрах; квадратными скобками обозначены формы облаков: Ci - перистые, Cs - перисто-слоистые, Cc - перисто-кучевые, Ac - высококучевые, As - высокослоистые, Sc - слоисто-кучевые, Ns - слоисто-дождевые, Cu - кучевые, Cb - кучево-дождевые. Подробнее классификацию облаков см. в Атласе облаков (PDF).
T - Температура воздуха - температура, измеренная на высоте 2 м над землей.
Td - Температура точки росы - температура, при понижении до которой содержащийся в воздухе водяной пар достигнет насыщения.
f - Относительная влажность воздуха - влажноcть воздуха, измеренная на высоте 2 м над землей.
Te - Эффективная температура - температура, которую ощущает одетый по сезону человек в тени. Характеристика душности погоды. При расчете учитывается влияние влажности воздуха и скорости ветра на теплоощущения человека.
Tes - Эффективная температура на солнце - температура, которую ощущает человек, с поправкой на солнечный нагрев. Характеристика знойности погоды. Зависит от высоты солнца над горизонтом, облачности и скорости ветра. Ночью, в пасмурную погоду, а также при ветре 12 м/с и более поправка равна нулю.
P - Атмосферное давление - приведенное к уровню моря атмосферное давление.
Po - Атмосферное давление - измеренное на уровне метеостанции атмосферное давление.
Tmin - Минимальная температура - минимум температуры воздуха на высоте 2 м над землей.
Tmax - Максимальная температура - максимум температуры воздуха на высоте 2 м над землей.
R - Количество осадков - Количество выпавших осадков за период времени, мм. При наведении курсора мыши на число - период времени, за который выпало указанное количество осадков.
R24 - Количество осадков - Количество выпавших осадков за 24 часа, мм.
S - Снежный покров - Высота снежного покрова, см. При наведении курсора мыши на число - состояние снежного покрова и степень покрытия местности в баллах.